Miscellaneous Local Product
Issued by NWS Hastings, NE

Home | Current Version | Previous Version | Text Only | Print | Product List | Glossary Off
Versions: 1 2 3 4 5 6 7 8 9 10 11 12 13 14 15 16 17 18 19 20 21 22 23 24 25 26 27 28 29 30 31 32 33 34 35 36 37 38 39 40 41 42 43 44 45 46 47 48 49 50

000
AXUS43 KGID 231802
MISGRI

GID CWA HOURLY WEATHER ROUNDUP
NATIONAL WEATHER SERVICE HASTINGS NE
100 PM CDT WED APR 23 2014

NOTE: "FAIR" INDICATES FEW OR NO CLOUDS BELOW 12,000 FEET WITH NO
SIGNIFICANT WEATHER AND/OR OBSTRUCTIONS TO VISIBILITY.

...SOUTH CENTRAL NEBRASKA...

CITY           SKY/WX    TMP DP  RH WIND       PRES   REMARKS
GRAND ISLAND   FAIR      69  45  41 S24G39    29.62F
HASTINGS       FAIR      69  44  40 S24G36    29.62F
KEARNEY        FAIR      73  48  40 S28G33    29.59F
ORD            CLOUDY    70  44  39 S25G38    29.56F
YORK           FAIR      63  43  48 S29G40    29.68F
AURORA         FAIR      66  44  44 S29G38    29.65F
LEXINGTON      PTSUNNY   74  50  43 S17G24    29.56F
HOLDREGE       FAIR      74  47  39 S29G37    29.57F
HEBRON         FAIR      60  44  55 S26G37    29.69F THUNDER

...NEBRASKA PANHANDLE...

CITY           SKY/WX    TMP DP  RH WIND       PRES   REMARKS
CHADRON        CLOUDY    65  26  23 W20G29    29.61R
ALLIANCE       PTSUNNY   67  29  24 W23G31    29.62R
SCOTTSBLUFF    MOSUNNY   66  26  22 NW33G47   29.63S
SIDNEY         SUNNY     69  31  24 NW21G29   29.65R

...WESTERN AND NORTH CENTRAL NEBRASKA...

CITY           SKY/WX    TMP DP  RH WIND       PRES   REMARKS
VALENTINE      CLOUDY    69  44  40 SW14      29.51S
AINSWORTH      CLOUDY    70  44  38 S17       29.53F
ONEILL         PTSUNNY   67  38  34 S26G36    29.58F
BROKEN BOW     PTSUNNY   74  47  38 S22G35    29.55F
IMPERIAL       CLOUDY    72  41  32 N25G31    29.59S
NORTH PLATTE   CLOUDY    72  46  39 NW15      29.55R
MCCOOK         CLOUDY    79  47  32 NW18      29.55F

...EASTERN NEBRASKA...

CITY           SKY/WX    TMP DP  RH WIND       PRES   REMARKS
NORFOLK        NOT AVBL
SO SIOUX CITY  FAIR      60  43  53 SE32G41   29.75F
TEKAMAH        FAIR      56  44  64 SE33G41   29.76F
COLUMBUS       FAIR      63  43  48 S24G38    29.69F
ALBION         FAIR      66  40  38 S30G40    29.62F
OMAHA EPPLEY   LGT RAIN  51  43  74 SE28G40   29.77F
OFFUTT AFB     LGT RAIN  51  46  82 SE24G32   29.80F
MILLARD        LGT RAIN  51  42  73 SE24      29.78F
LINCOLN        TSTM      57  44  62 SE23G29   29.72F
NEBRASKA CITY  FAIR      57  43  59 SE22G28   29.83F
BEATRICE       FAIR      59  43  55 SE20G31   29.74F THUNDER
FALLS CITY     NOT AVBL

...NORTHERN KANSAS...

CITY           SKY/WX    TMP DP  RH WIND       PRES   REMARKS
GOODLAND       CLOUDY    76  40  27 SW21G29   29.57F
HILL CITY      FAIR      81  49  32 SW25G43   29.57F
PHILLIPSBURG   SUNNY     81  46  30 S23G37    29.58F
SMITH CENTER   SUNNY     77  52  41 S31G38    29.62F
BELOIT         MOSUNNY   72  48  43 SE22G33   29.65F
HAYS           FAIR     N/A N/A N/A S33G49    29.60F
RUSSELL        FAIR      81  50  33 S37G46    29.63F
CONCORDIA      FAIR      69  45  41 SE22G31   29.70F
SALINA         LGT RAIN  77  47  34 S23G39    29.72F
TOPEKA         FAIR      73  41  31 SE21      29.83F



USA.gov is the U.S. government's official web portal to all federal, state and local government web resources and services.